Showing default

MULTIFUNCTION TEST SAT, 46233

Orbit data source: Space-Track

MULTIFUNCTION TEST SAT, 46233 is a payload satellite owned by Junshi Kexue YY (CN) in LEO that was launched on Sun, 23 Aug 2020 UTC via a CHANG ZHENG 2D launch vehicle from the Jiuquan Satellite Launch Center, China (JSC). Payloads include a variety of satellites, spacecraft, and rockets equipped with specific instruments for various scientific and technological missions. These include communications satellites like Starlink; space stations such as the ISS; scientific satellites like the Hubble; Earth observation satellites from companies like Planet Labs, Umbra, and HawkEye 360; GPS; miniature CubeSats for education and research; and military/defense satellites.

Not visible in the next 10 days
MULTIFUNCTION TEST SAT details
Identifier
46233, 2020-058B
Orbit
LEO
Last TLE update4 months ago
Origin
Flag of CNJunshi Kexue YY (CN / PRC)
ManufacturerJunshi Kexue YY
MissionDecayed Defense Technology
Bus & MotorCUBESAT?, Unknown motor
Mass~10 kg wet, ~10 kg dry
Launch date (UTC)
2020-08-23 (4 years ago)
Launch vehicle
CHANG ZHENG 2D
Launch site
Jiuquan Satellite Launch Center, China (JSC)
Object type
Payload
Rocket body
Debris
Shape & HBRBox, 0.3 m
Radar Cross Section0.080 m², Medium (>0.1 m² and < 1m²)

Expand to show TLE details & history

TLE from 4 months ago
0 MULTIFUNCTION TEST SAT
1 46233U 20058B   24234.62244668  .07937579  24342-5  11767-2 0  9997
2 46233  97.2605 307.7228 0013441 252.3320 107.6510 16.34227145223875
Epoch: 2024-08-21T14:56Z
Definitive object data (Epoch: 2024-08-21T14:56:19.393Z)
Latitude0.00005°
Longitude113.22001°
Altitude187.137 km
Speed7.792 km/s
True Right ascension20h 30m 53s
True Declination0° 00' 00"
Sunlit
Object was in full shadow at TLE epoch
Visualization observer readout
Observer readout values are unavailable because the object's trajectory could not be propagated. This is usually caused when the trajectory data is faulty or the object's orbit has decayed.
Visualization observer readout
Observer readout values are unavailable because the object's trajectory could not be propagated. This is usually caused when the trajectory data is faulty or the object's orbit has decayed.
Orbital elements
Apogee altitude186.825 km
Perigee altitude169.201 km
Semi-major axis6,556.15 km
Eccentricity0.0013441
Inclination97.2605°
RAAN307.7228°
Arg. of periapsis252.332°
True anomaly107.7977°
Mean anomaly107.651°
Eccentric anomaly107.72436°
Mean motion4.08855 °/min
BSTAR0.0011767
Orbital period88.05 mins
Loading maneuver chart data...
Loading historical data...
Loading historical data...
Loading historical data...
Loading historical data...
Loading historical data...
Loading historical data...
Loading historical data...
Other satellites on launch #58 in the year 2020 (2020-08-23 UTC)

MULTIFUNCTION TEST SAT Visibility forecast

Observer location: undefined°, undefined

MULTIFUNCTION TEST SAT is not visible in the next 10 days
Span
Click to sort rows by Start time (UTC) header in descending order
Start Az.
Max El. time (UTC)
Max El. Az.
Max El.
End time (UTC)
End Az.
|